Location: Bad Salzschlirf
(50.3750°N, 9.3000°E)
Time: 03:26:13
(UTC+02:00)

ISS - Pass Details

Date: 07 July 2025
Orbit: 413 x 417 km, 51.6° (Epoch: 12 July)

Event Time Altitude Azimuth Distance (km) Brightness Sun altitude
Rises 02:00:59 0° 270° (W) 2,354 0.0 -16.7°
Reaches altitude 10° 02:03:05 10° 273° (W) 1,492 -1.0 -16.6°
Maximum altitude 02:06:25 69° 358° (N) 451 -3.5 -16.5°
Drops below altitude 10° 02:09:46 10° 82° (E) 1,495 -0.7 -16.5°
Sets 02:11:53 0° 85° (E) 2,359 0.3 -16.4°
